Location: Hamburg
(53.5554°N, 9.9941°E)
Time: 03:27:33
(UTC+01:00)

ISS - Pass Details

Date: 07 January 2018
Orbit: 402 x 407 km, 51.6° (Epoch: 22 January)

Event Time Altitude Azimuth Distance (km) Brightness Sun altitude
Exits shadow 07:28:44 11° 269° (W) 1,439 -1.6 -9.1°
Maximum altitude 07:31:46 40° 199° (SSW) 620 -2.8 -8.7°
Drops below altitude 10° 07:34:52 10° 129° (SE) 1,468 0.6 -8.3°
Sets 07:37:01 0° 121° (ESE) 2,328 2.5 -8.0°
